KB9VKQ-13 Weather Reports


time (UTC)temp
C
wind
direction
speed
KPH
gust
KPH
rain 1hr
cm
rain 24hr
cm
rain mn
cm
humidity
%
barometer
mb
20260505124410 11 14 4.8 11.3 0.05 0.81 0.61
20260505123340 11 24 4.8 11.3 0.05 0.81 0.58
20260505122340 11 44 4.8 16.1 0.05 0.81 0.58
20260505121339 11 46 8.0 12.9 0.05 0.81 0.58
20260505120309 11 55 6.4 14.5 0.05 0.81 0.58
20260505115309 11 32 6.4 20.9 0.05 0.81 0.58
20260505114240 12 352 9.7 25.7 0.00 0.81 0.53
20260505113239 12 346 14.5 29.0 0.00 0.81 0.53
20260505112209 13 353 12.9 24.1 0.00 0.81 0.53
20260505111209 14 356 8.0 16.1 0.00 0.81 0.53
20260505110139 14 343 4.8 11.3 0.00 0.81 0.53
20260505102039 14 347 0.0 4.8 0.13 0.81 0.53
20260505101039 14 333 0.0 6.4 0.13 0.81 0.53
20260505100104 14 357 3.2 9.7 0.13 0.81 0.53
20260505100009 14 357 3.2 9.7 0.13 0.81 0.53
20260505094939 15 77 4.8 6.4 0.08 0.81 0.48
20260505093939 15 232 0.0 0.0 0.00 0.81 0.41
20260505092909 15 232 0.0 8.0 0.00 0.81 0.41
20260505091839 15 190 3.2 6.4 0.00 0.81 0.41
20260505090839 15 132 1.6 11.3 0.00 0.81 0.41
20260505085809 14 222 8.0 11.3 0.03 0.81 0.41
20260505084809 15 211 3.2 4.8 0.03 0.81 0.41
20260505083739 15 169 3.2 6.4 0.41 0.81 0.41
20260505082709 15 236 3.2 8.0 0.28 0.81 0.41
20260505081639 15 229 3.2 8.0 0.41 0.81 0.41
20260505080639 15 231 6.4 8.0 0.41 0.81 0.41
20260505075839 15 285 8.0 16.1 0.38 0.81 0.38
20260505075609 15 285 8.0 16.1 0.38 0.81 0.38
20260505074609 16 302 11.3 37.0 0.38 0.81 0.38
20260505073539 16 278 16.1 25.7 0.25 0.81 0.25
20260505072509 17 322 9.7 16.1 0.08 0.81 0.08
20260505071653 18 354 4.8 17.7 0.00 0.81 0.00
20260505071509 18 354 4.8 17.7 0.00 0.81 0.00
20260505070439 18 14 9.7 16.1 0.00 0.81 0.00
20260505065439 18 311 4.8 16.1 0.00 0.81 0.00
20260505064409 19 37 8.0 14.5 0.00 0.81 0.00
20260505063409 19 311 9.7 24.1 0.00 0.81 0.00
20260505062409 19 264 12.9 24.1 0.00 0.81 0.00
20260505061409 19 238 14.5 27.4 0.00 0.81 0.00
20260505060409 19 232 17.7 27.4 0.00 0.81 0.00
20260505055409 19 238 14.5 30.6 0.00 0.81 0.00
20260505054339 19 248 14.5 27.4 0.00 0.81 0.00
20260505053339 19 229 14.5 27.4 0.00 0.81 0.00
20260505052309 19 270 20.9 32.2 0.00 0.81 0.00
20260505051239 19 231 14.5 25.7 0.00 0.81 0.00
20260505050209 19 255 14.5 29.0 0.00 0.81 0.00
20260505041109 20 229 14.5 37.0 0.00 0.18 0.81
20260505040039 20 236 14.5 33.8 0.00 0.18 0.81
20260505035009 20 240 16.1 27.4 0.00 0.18 0.81
20260505034009 20 284 16.1 30.6 0.00 0.18 0.81
20260505032939 20 235 20.9 32.2 0.00 0.18 0.81
20260505031909 20 252 20.9 30.6 0.00 0.18 0.81
20260505030909 20 233 20.9 33.8 0.00 0.18 0.81
20260505025839 20 248 14.5 32.2 0.00 0.18 0.81
20260505024839 20 259 16.1 30.6 0.00 0.18 0.81
20260505023809 20 250 14.5 29.0 0.00 0.18 0.81
20260505022739 20 236 14.5 27.4 0.03 0.18 0.81
20260505021739 20 246 9.7 20.9 0.03 0.18 0.81
20260505020709 20 250 12.9 22.5 0.03 0.18 0.81
20260505015709 20 177 9.7 24.1 0.03 0.18 0.81
20260505014709 20 135 11.3 20.9 0.03 0.18 0.81
20260505013639 20 242 16.1 29.0 0.03 0.18 0.81
20260505012639 21 235 14.5 25.7 0.00 0.18 0.79
20260505011609 20 245 16.1 32.2 0.00 0.18 0.79
20260505010609 20 181 20.9 45.1 0.00 0.18 0.79
20260505005539 21 219 17.7 29.0 0.00 0.18 0.79
20260505004509 21 233 12.9 27.4 0.00 0.18 0.79
20260505003509 22 259 11.3 30.6 0.00 0.18 0.79
20260505002509 22 163 14.5 38.6 0.00 0.18 0.79
20260505001509 22 253 19.3 40.2 0.00 0.18 0.79
20260505000509 22 240 17.7 33.8 0.00 0.18 0.79
20260504235438 22 218 20.9 33.8 0.00 0.18 0.79
20260504234439 23 260 19.3 41.8 0.00 0.18 0.79
20260504233409 23 221 17.7 35.4 0.00 0.18 0.79
20260504232408 23 214 24.1 40.2 0.00 0.18 0.79
20260504231408 25 232 25.7 37.0 0.00 0.18 0.79
20260504230338 26 235 19.3 32.2 0.00 0.18 0.79
20260504225338 25 242 19.3 40.2 0.00 0.18 0.79
20260504224338 25 195 22.5 33.8 0.00 0.18 0.79
20260504223308 25 226 20.9 32.2 0.00 0.18 0.79
20260504222238 25 193 12.9 27.4 0.00 0.18 0.79
20260504221208 25 238 17.7 32.2 0.00 0.18 0.79
20260504220208 24 240 17.7 30.6 0.00 0.18 0.79
20260504215138 23 215 17.7 32.2 0.00 0.18 0.79
20260504214138 24 228 20.9 37.0 0.00 0.18 0.79
20260504213138 23 217 19.3 40.2 0.00 0.18 0.79
20260504212108 23 224 20.9 35.4 0.00 0.18 0.79
20260504211109 23 232 19.3 40.2 0.00 0.18 0.79
20260504210108 23 256 16.1 29.0 0.00 0.18 0.79
20260504205038 23 240 12.9 27.4 0.00 0.18 0.79
20260504204008 22 229 9.7 27.4 0.00 0.18 0.79
20260504203008 22 222 14.5 27.4 0.00 0.18 0.79
20260504201938 22 229 14.5 25.7 0.00 0.18 0.79
20260504200938 22 219 17.7 30.6 0.00 0.18 0.79
20260504195908 22 224 16.1 27.4 0.00 0.18 0.79
20260504194838 21 249 14.5 25.7 0.00 0.18 0.79
20260504193838 20 233 17.7 32.2 0.00 0.18 0.79
20260504192817 20 232 17.7 0.0 0.00 0.18 0.79
20260504192808 20 232 17.7 30.6 0.00 0.18 0.79
20260504191808 20 236 16.1 33.8 0.03 0.18 0.79
20260504190738 19 221 20.9 37.0 0.03 0.18 0.79
20260504185708 19 201 17.7 35.4 0.03 0.18 0.79
20260504184708 20 245 17.7 35.4 0.03 0.18 0.79
20260504183638 20 280 20.9 45.1 0.03 0.18 0.79
20260504182638 20 271 16.1 24.1 0.03 0.18 0.79
20260504181638 20 252 9.7 25.7 0.00 0.18 0.76
20260504180638 21 236 11.3 25.7 0.00 0.18 0.76
20260504175638 21 212 14.5 29.0 0.00 0.18 0.76
20260504174608 21 214 16.1 33.8 0.00 0.18 0.76
20260504173608 21 232 12.9 33.8 0.00 0.18 0.76
20260504172538 22 266 14.5 29.0 0.00 0.18 0.76
20260504171538 21 217 11.3 29.0 0.00 0.18 0.76
20260504170508 21 229 11.3 33.8 0.00 0.18 0.76
20260504160238 22 228 16.1 27.4 0.00 0.18 0.76
20260504151038 21 231 11.3 27.4 0.00 0.18 0.76
20260504140908 18 270 11.3 17.7 0.00 0.18 0.76